owner,sensor,date,latitude,longitude,vertical_datum,mass_concentration_of_oxygen_in_sea_water,qcFlag 
TCOON,ioos:station:TCOON:171:1,2017-07-01T00:30:00Z,27.4847,-97.3181,1.0,5.71,1111122 
TCOON,ioos:station:TCOON:171:1,2017-07-01T02:30:00Z,27.4847,-97.3181,1.0,5.13,1111122 
TCOON,ioos:station:TCOON:171:1,2017-07-01T03:30:00Z,27.4847,-97.3181,1.0,4.91,1111122 
TCOON,ioos:station:TCOON:171:1,2017-07-01T04:30:00Z,27.4847,-97.3181,1.0,4.81,1111122 
TCOON,ioos:station:TCOON:171:1,2017-07-01T05:30:00Z,27.4847,-97.3181,1.0,4.73,1111122 
TCOON,ioos:station:TCOON:171:1,2017-07-01T10:30:00Z,27.4847,-97.3181,1.0,4.75,1111122 
TCOON,ioos:station:TCOON:171:1,2017-07-01T11:30:00Z,27.4847,-97.3181,1.0,4.63,1111122 
TCOON,ioos:station:TCOON:171:1,2017-07-01T12:30:00Z,27.4847,-97.3181,1.0,4.64,1111122 
TCOON,ioos:station:TCOON:171:1,2017-07-01T14:30:00Z,27.4847,-97.3181,1.0,5.04,1111122 
TCOON,ioos:station:TCOON:171:1,2017-07-01T17:30:00Z,27.4847,-97.3181,1.0,6.32,1111122 
TCOON,ioos:station:TCOON:171:1,2017-07-01T18:30:00Z,27.4847,-97.3181,1.0,6.65,1111122 
TCOON,ioos:station:TCOON:171:1,2017-07-01T19:30:00Z,27.4847,-97.3181,1.0,6.77,1111122 
TCOON,ioos:station:TCOON:171:1,2017-07-01T20:30:00Z,27.4847,-97.3181,1.0,6.86,1111122 
TCOON,ioos:station:TCOON:171:1,2017-07-01T22:30:00Z,27.4847,-97.3181,1.0,7.41,1111122 
TCOON,ioos:station:TCOON:171:1,2017-07-02T01:30:00Z,27.4847,-97.3181,1.0,5.68,1111122 
TCOON,ioos:station:TCOON:171:1,2017-07-02T02:30:00Z,27.4847,-97.3181,1.0,5.36,1111122 
TCOON,ioos:station:TCOON:171:1,2017-07-02T03:30:00Z,27.4847,-97.3181,1.0,5.14,1111122 
TCOON,ioos:station:TCOON:171:1,2017-07-02T04:30:00Z,27.4847,-97.3181,1.0,4.94,1111122 
TCOON,ioos:station:TCOON:171:1,2017-07-02T05:30:00Z,27.4847,-97.3181,1.0,4.83,1111122 
TCOON,ioos:station:TCOON:171:1,2017-07-02T06:30:00Z,27.4847,-97.3181,1.0,4.74,1111122 
TCOON,ioos:station:TCOON:171:1,2017-07-02T07:30:00Z,27.4847,-97.3181,1.0,4.66,1111122 
TCOON,ioos:station:TCOON:171:1,2017-07-02T09:30:00Z,27.4847,-97.3181,1.0,4.68,1111122 
TCOON,ioos:station:TCOON:171:1,2017-07-02T10:30:00Z,27.4847,-97.3181,1.0,4.61,1111122 
TCOON,ioos:station:TCOON:171:1,2017-07-02T11:30:00Z,27.4847,-97.3181,1.0,4.67,1111122 
TCOON,ioos:station:TCOON:171:1,2017-07-02T12:30:00Z,27.4847,-97.3181,1.0,4.54,1111122 
TCOON,ioos:station:TCOON:171:1,2017-07-02T13:30:00Z,27.4847,-97.3181,1.0,4.64,1111122 
TCOON,ioos:station:TCOON:171:1,2017-07-02T17:30:00Z,27.4847,-97.3181,1.0,6.08,1111122 
TCOON,ioos:station:TCOON:171:1,2017-07-02T18:30:00Z,27.4847,-97.3181,1.0,6.71,1111122 
TCOON,ioos:station:TCOON:171:1,2017-07-02T19:30:00Z,27.4847,-97.3181,1.0,7.12,1111122 
TCOON,ioos:station:TCOON:171:1,2017-07-02T20:30:00Z,27.4847,-97.3181,1.0,7.79,1111122 
TCOON,ioos:station:TCOON:171:1,2017-07-02T22:30:00Z,27.4847,-97.3181,1.0,7.2,1111122 
TCOON,ioos:station:TCOON:171:1,2017-07-02T23:30:00Z,27.4847,-97.3181,1.0,6.55,1111122 
TCOON,ioos:station:TCOON:171:1,2017-07-03T00:30:00Z,27.4847,-97.3181,1.0,6.23,1111122 
TCOON,ioos:station:TCOON:171:1,2017-07-03T01:30:00Z,27.4847,-97.3181,1.0,5.9,1111122 
TCOON,ioos:station:TCOON:171:1,2017-07-03T02:30:00Z,27.4847,-97.3181,1.0,5.3,1111122 
TCOON,ioos:station:TCOON:171:1,2017-07-03T03:30:00Z,27.4847,-97.3181,1.0,4.9,1111122 
TCOON,ioos:station:TCOON:171:1,2017-07-03T04:30:00Z,27.4847,-97.3181,1.0,4.96,1111122 
TCOON,ioos:station:TCOON:171:1,2017-07-03T05:30:00Z,27.4847,-97.3181,1.0,4.73,1111122 
TCOON,ioos:station:TCOON:171:1,2017-07-03T07:30:00Z,27.4847,-97.3181,1.0,4.55,1111122 
TCOON,ioos:station:TCOON:171:1,2017-07-03T08:30:00Z,27.4847,-97.3181,1.0,4.43,1111122 
TCOON,ioos:station:TCOON:171:1,2017-07-03T09:30:00Z,27.4847,-97.3181,1.0,4.39,1111122 
TCOON,ioos:station:TCOON:171:1,2017-07-03T10:30:00Z,27.4847,-97.3181,1.0,4.4,1111122 
TCOON,ioos:station:TCOON:171:1,2017-07-03T11:30:00Z,27.4847,-97.3181,1.0,4.35,1111122 
TCOON,ioos:station:TCOON:171:1,2017-07-03T12:30:00Z,27.4847,-97.3181,1.0,4.44,1111122 
TCOON,ioos:station:TCOON:171:1,2017-07-03T15:30:00Z,27.4847,-97.3181,1.0,5.31,1111122 
TCOON,ioos:station:TCOON:171:1,2017-07-03T17:30:00Z,27.4847,-97.3181,1.0,6.1,1111122 
TCOON,ioos:station:TCOON:171:1,2017-07-03T18:30:00Z,27.4847,-97.3181,1.0,6.51,1111122 
TCOON,ioos:station:TCOON:171:1,2017-07-03T19:30:00Z,27.4847,-97.3181,1.0,7.0,1111122 
TCOON,ioos:station:TCOON:171:1,2017-07-03T20:30:00Z,27.4847,-97.3181,1.0,7.16,1111122 
TCOON,ioos:station:TCOON:171:1,2017-07-04T02:30:00Z,27.4847,-97.3181,1.0,4.91,1111122 
TCOON,ioos:station:TCOON:171:1,2017-07-04T03:30:00Z,27.4847,-97.3181,1.0,4.71,1111122 
TCOON,ioos:station:TCOON:171:1,2017-07-04T04:30:00Z,27.4847,-97.3181,1.0,4.7,1111122 
TCOON,ioos:station:TCOON:171:1,2017-07-04T05:30:00Z,27.4847,-97.3181,1.0,4.56,1111122 
TCOON,ioos:station:TCOON:171:1,2017-07-04T08:30:00Z,27.4847,-97.3181,1.0,4.45,1111122 
TCOON,ioos:station:TCOON:171:1,2017-07-04T10:30:00Z,27.4847,-97.3181,1.0,4.38,1111122 
TCOON,ioos:station:TCOON:171:1,2017-07-04T11:30:00Z,27.4847,-97.3181,1.0,4.34,1111122 
TCOON,ioos:station:TCOON:171:1,2017-07-04T12:30:00Z,27.4847,-97.3181,1.0,4.24,1111122 
TCOON,ioos:station:TCOON:171:1,2017-07-04T15:30:00Z,27.4847,-97.3181,1.0,5.48,1111122 
TCOON,ioos:station:TCOON:171:1,2017-07-04T17:30:00Z,27.4847,-97.3181,1.0,6.42,1111122 
TCOON,ioos:station:TCOON:171:1,2017-07-04T18:30:00Z,27.4847,-97.3181,1.0,6.95,1111122 
TCOON,ioos:station:TCOON:171:1,2017-07-04T19:30:00Z,27.4847,-97.3181,1.0,7.1,1111122 
TCOON,ioos:station:TCOON:171:1,2017-07-04T20:30:00Z,27.4847,-97.3181,1.0,7.13,1111122 
TCOON,ioos:station:TCOON:171:1,2017-07-04T22:30:00Z,27.4847,-97.3181,1.0,6.75,1111122 
TCOON,ioos:station:TCOON:171:1,2017-07-05T02:30:00Z,27.4847,-97.3181,1.0,4.82,1111122 
TCOON,ioos:station:TCOON:171:1,2017-07-05T03:30:00Z,27.4847,-97.3181,1.0,4.71,1111122 
TCOON,ioos:station:TCOON:171:1,2017-07-05T04:30:00Z,27.4847,-97.3181,1.0,4.49,1111122 
TCOON,ioos:station:TCOON:171:1,2017-07-05T09:30:00Z,27.4847,-97.3181,1.0,4.26,1111122 
TCOON,ioos:station:TCOON:171:1,2017-07-05T10:30:00Z,27.4847,-97.3181,1.0,4.24,1111122 
TCOON,ioos:station:TCOON:171:1,2017-07-05T11:30:00Z,27.4847,-97.3181,1.0,4.12,1111122 
TCOON,ioos:station:TCOON:171:1,2017-07-05T12:30:00Z,27.4847,-97.3181,1.0,4.02,1111122 
TCOON,ioos:station:TCOON:171:1,2017-07-05T14:30:00Z,27.4847,-97.3181,1.0,4.54,1111122 
TCOON,ioos:station:TCOON:171:1,2017-07-05T15:30:00Z,27.4847,-97.3181,1.0,5.09,1111122 
TCOON,ioos:station:TCOON:171:1,2017-07-05T16:30:00Z,27.4847,-97.3181,1.0,5.87,1111122 
TCOON,ioos:station:TCOON:171:1,2017-07-05T18:30:00Z,27.4847,-97.3181,1.0,7.49,1111122 
TCOON,ioos:station:TCOON:171:1,2017-07-05T19:30:00Z,27.4847,-97.3181,1.0,7.57,1111122 
TCOON,ioos:station:TCOON:171:1,2017-07-05T20:30:00Z,27.4847,-97.3181,1.0,7.81,1111122 
TCOON,ioos:station:TCOON:171:1,2017-07-06T02:30:00Z,27.4847,-97.3181,1.0,5.15,1111122 
TCOON,ioos:station:TCOON:171:1,2017-07-06T03:30:00Z,27.4847,-97.3181,1.0,4.6,1111122 
TCOON,ioos:station:TCOON:171:1,2017-07-06T04:30:00Z,27.4847,-97.3181,1.0,4.4,1111122 
TCOON,ioos:station:TCOON:171:1,2017-07-06T05:30:00Z,27.4847,-97.3181,1.0,4.56,1111122 
TCOON,ioos:station:TCOON:171:1,2017-07-06T08:30:00Z,27.4847,-97.3181,1.0,4.43,1111122 
TCOON,ioos:station:TCOON:171:1,2017-07-06T09:30:00Z,27.4847,-97.3181,1.0,4.22,1111122 
TCOON,ioos:station:TCOON:171:1,2017-07-06T10:30:00Z,27.4847,-97.3181,1.0,4.08,1111122 
TCOON,ioos:station:TCOON:171:1,2017-07-06T11:30:00Z,27.4847,-97.3181,1.0,4.04,1111122 
TCOON,ioos:station:TCOON:171:1,2017-07-06T12:30:00Z,27.4847,-97.3181,1.0,4.05,1111122 
TCOON,ioos:station:TCOON:171:1,2017-07-06T13:30:00Z,27.4847,-97.3181,1.0,3.95,1111122 
TCOON,ioos:station:TCOON:171:1,2017-07-06T14:30:00Z,27.4847,-97.3181,1.0,4.4,1111122 
TCOON,ioos:station:TCOON:171:1,2017-07-06T15:30:00Z,27.4847,-97.3181,1.0,5.0,1111122 
TCOON,ioos:station:TCOON:171:1,2017-07-06T16:30:00Z,27.4847,-97.3181,1.0,5.45,1111122 
TCOON,ioos:station:TCOON:171:1,2017-07-06T17:30:00Z,27.4847,-97.3181,1.0,7.4,1111122 
TCOON,ioos:station:TCOON:171:1,2017-07-06T18:30:00Z,27.4847,-97.3181,1.0,7.42,1111122 
TCOON,ioos:station:TCOON:171:1,2017-07-06T19:30:00Z,27.4847,-97.3181,1.0,7.94,1111122 
TCOON,ioos:station:TCOON:171:1,2017-07-06T20:30:00Z,27.4847,-97.3181,1.0,8.26,1111122 
TCOON,ioos:station:TCOON:171:1,2017-07-06T21:30:00Z,27.4847,-97.3181,1.0,7.86,1111122 
TCOON,ioos:station:TCOON:171:1,2017-07-06T22:30:00Z,27.4847,-97.3181,1.0,7.72,1111122 
TCOON,ioos:station:TCOON:171:1,2017-07-06T23:30:00Z,27.4847,-97.3181,1.0,7.5,1111122 
TCOON,ioos:station:TCOON:171:1,2017-07-07T00:30:00Z,27.4847,-97.3181,1.0,7.44,1111122 
TCOON,ioos:station:TCOON:171:1,2017-07-07T01:30:00Z,27.4847,-97.3181,1.0,6.05,1111122 
TCOON,ioos:station:TCOON:171:1,2017-07-07T02:30:00Z,27.4847,-97.3181,1.0,5.54,1111122 
TCOON,ioos:station:TCOON:171:1,2017-07-07T03:30:00Z,27.4847,-97.3181,1.0,5.03,1111122 
TCOON,ioos:station:TCOON:171:1,2017-07-07T04:30:00Z,27.4847,-97.3181,1.0,4.85,1111122 
TCOON,ioos:station:TCOON:171:1,2017-07-07T05:30:00Z,27.4847,-97.3181,1.0,4.53,1111122 
TCOON,ioos:station:TCOON:171:1,2017-07-07T06:30:00Z,27.4847,-97.3181,1.0,4.29,1111122 
TCOON,ioos:station:TCOON:171:1,2017-07-07T07:30:00Z,27.4847,-97.3181,1.0,4.46,1111122 
TCOON,ioos:station:TCOON:171:1,2017-07-07T08:30:00Z,27.4847,-97.3181,1.0,4.23,1111122 
TCOON,ioos:station:TCOON:171:1,2017-07-07T09:30:00Z,27.4847,-97.3181,1.0,4.17,1111122 
TCOON,ioos:station:TCOON:171:1,2017-07-07T10:30:00Z,27.4847,-97.3181,1.0,3.92,1111122 
TCOON,ioos:station:TCOON:171:1,2017-07-07T11:30:00Z,27.4847,-97.3181,1.0,3.98,1111122 
TCOON,ioos:station:TCOON:171:1,2017-07-07T12:30:00Z,27.4847,-97.3181,1.0,4.08,1111122 
TCOON,ioos:station:TCOON:171:1,2017-07-07T13:30:00Z,27.4847,-97.3181,1.0,4.41,1111122 
TCOON,ioos:station:TCOON:171:1,2017-07-07T14:30:00Z,27.4847,-97.3181,1.0,4.39,1111122 
TCOON,ioos:station:TCOON:171:1,2017-07-07T15:30:00Z,27.4847,-97.3181,1.0,5.13,1111122 
TCOON,ioos:station:TCOON:171:1,2017-07-07T16:30:00Z,27.4847,-97.3181,1.0,5.5,1111122 
TCOON,ioos:station:TCOON:171:1,2017-07-07T17:30:00Z,27.4847,-97.3181,1.0,7.27,1111122 
TCOON,ioos:station:TCOON:171:1,2017-07-07T18:30:00Z,27.4847,-97.3181,1.0,8.7,1111122 
TCOON,ioos:station:TCOON:171:1,2017-07-07T19:30:00Z,27.4847,-97.3181,1.0,8.29,1111122 
TCOON,ioos:station:TCOON:171:1,2017-07-07T20:30:00Z,27.4847,-97.3181,1.0,8.19,1111122 
TCOON,ioos:station:TCOON:171:1,2017-07-07T21:30:00Z,27.4847,-97.3181,1.0,7.49,1111122 
TCOON,ioos:station:TCOON:171:1,2017-07-07T22:30:00Z,27.4847,-97.3181,1.0,7.59,1111122 
TCOON,ioos:station:TCOON:171:1,2017-07-07T23:30:00Z,27.4847,-97.3181,1.0,7.47,1111122 
TCOON,ioos:station:TCOON:171:1,2017-07-08T00:30:00Z,27.4847,-97.3181,1.0,6.83,1111122 
TCOON,ioos:station:TCOON:171:1,2017-07-08T01:30:00Z,27.4847,-97.3181,1.0,6.24,1111122 
TCOON,ioos:station:TCOON:171:1,2017-07-08T02:30:00Z,27.4847,-97.3181,1.0,5.6,1111122 
TCOON,ioos:station:TCOON:171:1,2017-07-08T03:30:00Z,27.4847,-97.3181,1.0,5.35,1111122 
TCOON,ioos:station:TCOON:171:1,2017-07-08T04:30:00Z,27.4847,-97.3181,1.0,5.34,1111122 
TCOON,ioos:station:TCOON:171:1,2017-07-08T05:30:00Z,27.4847,-97.3181,1.0,4.98,1111122 
TCOON,ioos:station:TCOON:171:1,2017-07-08T06:30:00Z,27.4847,-97.3181,1.0,4.71,1111122 
TCOON,ioos:station:TCOON:171:1,2017-07-08T07:30:00Z,27.4847,-97.3181,1.0,4.54,1111122 
TCOON,ioos:station:TCOON:171:1,2017-07-08T08:30:00Z,27.4847,-97.3181,1.0,4.32,1111122 
TCOON,ioos:station:TCOON:171:1,2017-07-08T09:30:00Z,27.4847,-97.3181,1.0,4.34,1111122 
TCOON,ioos:station:TCOON:171:1,2017-07-08T10:30:00Z,27.4847,-97.3181,1.0,4.12,1111122 
TCOON,ioos:station:TCOON:171:1,2017-07-08T11:30:00Z,27.4847,-97.3181,1.0,3.96,1111122 
TCOON,ioos:station:TCOON:171:1,2017-07-08T12:30:00Z,27.4847,-97.3181,1.0,3.71,1111122 
TCOON,ioos:station:TCOON:171:1,2017-07-08T13:30:00Z,27.4847,-97.3181,1.0,3.78,1111122 
TCOON,ioos:station:TCOON:171:1,2017-07-08T14:30:00Z,27.4847,-97.3181,1.0,4.02,1111122 
TCOON,ioos:station:TCOON:171:1,2017-07-08T15:30:00Z,27.4847,-97.3181,1.0,5.2,1111122 
TCOON,ioos:station:TCOON:171:1,2017-07-08T16:30:00Z,27.4847,-97.3181,1.0,5.87,1111122 
TCOON,ioos:station:TCOON:171:1,2017-07-08T17:30:00Z,27.4847,-97.3181,1.0,7.16,1111122 
TCOON,ioos:station:TCOON:171:1,2017-07-08T18:30:00Z,27.4847,-97.3181,1.0,7.84,1111122 
TCOON,ioos:station:TCOON:171:1,2017-07-08T19:30:00Z,27.4847,-97.3181,1.0,8.27,1111122 
TCOON,ioos:station:TCOON:171:1,2017-07-08T20:30:00Z,27.4847,-97.3181,1.0,8.6,1111122 
TCOON,ioos:station:TCOON:171:1,2017-07-08T21:30:00Z,27.4847,-97.3181,1.0,7.6,1111122 
TCOON,ioos:station:TCOON:171:1,2017-07-08T22:30:00Z,27.4847,-97.3181,1.0,7.69,1111122 
TCOON,ioos:station:TCOON:171:1,2017-07-08T23:30:00Z,27.4847,-97.3181,1.0,7.09,1111122 
TCOON,ioos:station:TCOON:171:1,2017-07-09T00:30:00Z,27.4847,-97.3181,1.0,6.74,1111122 
TCOON,ioos:station:TCOON:171:1,2017-07-09T01:30:00Z,27.4847,-97.3181,1.0,6.26,1111122 
TCOON,ioos:station:TCOON:171:1,2017-07-09T02:30:00Z,27.4847,-97.3181,1.0,5.94,1111122 
TCOON,ioos:station:TCOON:171:1,2017-07-09T03:30:00Z,27.4847,-97.3181,1.0,5.24,1111122 
TCOON,ioos:station:TCOON:171:1,2017-07-09T04:30:00Z,27.4847,-97.3181,1.0,4.45,1111122 
TCOON,ioos:station:TCOON:171:1,2017-07-09T05:30:00Z,27.4847,-97.3181,1.0,4.47,1111122 
TCOON,ioos:station:TCOON:171:1,2017-07-09T06:30:00Z,27.4847,-97.3181,1.0,4.4,1111122 
TCOON,ioos:station:TCOON:171:1,2017-07-09T07:30:00Z,27.4847,-97.3181,1.0,4.39,1111122 
TCOON,ioos:station:TCOON:171:1,2017-07-09T08:30:00Z,27.4847,-97.3181,1.0,4.38,1111122 
TCOON,ioos:station:TCOON:171:1,2017-07-09T09:30:00Z,27.4847,-97.3181,1.0,4.03,1111122 
TCOON,ioos:station:TCOON:171:1,2017-07-09T10:30:00Z,27.4847,-97.3181,1.0,4.04,1111122 
TCOON,ioos:station:TCOON:171:1,2017-07-09T11:30:00Z,27.4847,-97.3181,1.0,3.96,1111122 
TCOON,ioos:station:TCOON:171:1,2017-07-09T12:30:00Z,27.4847,-97.3181,1.0,3.87,1111122 
TCOON,ioos:station:TCOON:171:1,2017-07-09T13:30:00Z,27.4847,-97.3181,1.0,4.07,1111122 
TCOON,ioos:station:TCOON:171:1,2017-07-09T14:30:00Z,27.4847,-97.3181,1.0,4.79,1111122 
TCOON,ioos:station:TCOON:171:1,2017-07-09T15:30:00Z,27.4847,-97.3181,1.0,5.26,1111122 
TCOON,ioos:station:TCOON:171:1,2017-07-09T16:30:00Z,27.4847,-97.3181,1.0,6.09,1111122 
TCOON,ioos:station:TCOON:171:1,2017-07-09T22:30:00Z,27.4847,-97.3181,1.0,7.45,1111122 
TCOON,ioos:station:TCOON:171:1,2017-07-10T00:30:00Z,27.4847,-97.3181,1.0,6.43,1111122 
TCOON,ioos:station:TCOON:171:1,2017-07-10T05:00:00Z,27.4847,-97.3181,1.0,4.68,1111122 
TCOON,ioos:station:TCOON:171:1,2017-07-10T09:30:00Z,27.4847,-97.3181,1.0,4.14,1111122 
TCOON,ioos:station:TCOON:171:1,2017-07-10T10:30:00Z,27.4847,-97.3181,1.0,3.99,1111122 
TCOON,ioos:station:TCOON:171:1,2017-07-10T11:30:00Z,27.4847,-97.3181,1.0,3.84,1111122 
TCOON,ioos:station:TCOON:171:1,2017-07-10T12:30:00Z,27.4847,-97.3181,1.0,3.93,1111122 
TCOON,ioos:station:TCOON:171:1,2017-07-10T13:30:00Z,27.4847,-97.3181,1.0,4.22,1111122 
TCOON,ioos:station:TCOON:171:1,2017-07-10T14:30:00Z,27.4847,-97.3181,1.0,4.53,1111122 
TCOON,ioos:station:TCOON:171:1,2017-07-10T15:30:00Z,27.4847,-97.3181,1.0,5.33,1111122 
TCOON,ioos:station:TCOON:171:1,2017-07-10T16:30:00Z,27.4847,-97.3181,1.0,6.31,1111122 
TCOON,ioos:station:TCOON:171:1,2017-07-10T17:30:00Z,27.4847,-97.3181,1.0,7.32,1111122 
TCOON,ioos:station:TCOON:171:1,2017-07-10T18:30:00Z,27.4847,-97.3181,1.0,7.95,1111122 
TCOON,ioos:station:TCOON:171:1,2017-07-10T19:30:00Z,27.4847,-97.3181,1.0,8.07,1111122 
TCOON,ioos:station:TCOON:171:1,2017-07-10T20:30:00Z,27.4847,-97.3181,1.0,8.33,1111122 
TCOON,ioos:station:TCOON:171:1,2017-07-10T21:30:00Z,27.4847,-97.3181,1.0,8.44,1111122 
TCOON,ioos:station:TCOON:171:1,2017-07-10T22:30:00Z,27.4847,-97.3181,1.0,8.23,1111122 
TCOON,ioos:station:TCOON:171:1,2017-07-10T23:30:00Z,27.4847,-97.3181,1.0,7.59,1111122 
TCOON,ioos:station:TCOON:171:1,2017-07-11T00:30:00Z,27.4847,-97.3181,1.0,6.89,1111122 
TCOON,ioos:station:TCOON:171:1,2017-07-11T01:30:00Z,27.4847,-97.3181,1.0,6.23,1111122 
TCOON,ioos:station:TCOON:171:1,2017-07-11T02:30:00Z,27.4847,-97.3181,1.0,5.45,1111122 
TCOON,ioos:station:TCOON:171:1,2017-07-11T03:30:00Z,27.4847,-97.3181,1.0,4.82,1111122 
TCOON,ioos:station:TCOON:171:1,2017-07-11T04:30:00Z,27.4847,-97.3181,1.0,4.75,1111122 
TCOON,ioos:station:TCOON:171:1,2017-07-11T05:30:00Z,27.4847,-97.3181,1.0,4.71,1111122 
TCOON,ioos:station:TCOON:171:1,2017-07-11T06:30:00Z,27.4847,-97.3181,1.0,4.62,1111122 
TCOON,ioos:station:TCOON:171:1,2017-07-11T07:30:00Z,27.4847,-97.3181,1.0,4.5,1111122 
TCOON,ioos:station:TCOON:171:1,2017-07-11T08:30:00Z,27.4847,-97.3181,1.0,4.52,1111122 
TCOON,ioos:station:TCOON:171:1,2017-07-11T09:30:00Z,27.4847,-97.3181,1.0,4.29,1111122 
TCOON,ioos:station:TCOON:171:1,2017-07-11T10:30:00Z,27.4847,-97.3181,1.0,4.13,1111122 
TCOON,ioos:station:TCOON:171:1,2017-07-11T11:30:00Z,27.4847,-97.3181,1.0,4.02,1111122 
TCOON,ioos:station:TCOON:171:1,2017-07-11T12:30:00Z,27.4847,-97.3181,1.0,3.93,1111122 
TCOON,ioos:station:TCOON:171:1,2017-07-11T13:30:00Z,27.4847,-97.3181,1.0,3.95,1111122 
TCOON,ioos:station:TCOON:171:1,2017-07-11T14:30:00Z,27.4847,-97.3181,1.0,4.81,1111122 
TCOON,ioos:station:TCOON:171:1,2017-07-11T15:30:00Z,27.4847,-97.3181,1.0,5.44,1111122 
TCOON,ioos:station:TCOON:171:1,2017-07-11T16:30:00Z,27.4847,-97.3181,1.0,6.05,1111122 
TCOON,ioos:station:TCOON:171:1,2017-07-11T17:30:00Z,27.4847,-97.3181,1.0,6.82,1111122 
TCOON,ioos:station:TCOON:171:1,2017-07-11T18:30:00Z,27.4847,-97.3181,1.0,7.3,1111122 
TCOON,ioos:station:TCOON:171:1,2017-07-11T19:30:00Z,27.4847,-97.3181,1.0,7.67,1111122 
TCOON,ioos:station:TCOON:171:1,2017-07-11T20:30:00Z,27.4847,-97.3181,1.0,7.48,1111122 
TCOON,ioos:station:TCOON:171:1,2017-07-11T21:30:00Z,27.4847,-97.3181,1.0,7.46,1111122 
TCOON,ioos:station:TCOON:171:1,2017-07-11T22:30:00Z,27.4847,-97.3181,1.0,7.31,1111122 
TCOON,ioos:station:TCOON:171:1,2017-07-11T23:30:00Z,27.4847,-97.3181,1.0,6.96,1111122 
TCOON,ioos:station:TCOON:171:1,2017-07-12T00:30:00Z,27.4847,-97.3181,1.0,5.98,1111122 
TCOON,ioos:station:TCOON:171:1,2017-07-12T01:30:00Z,27.4847,-97.3181,1.0,5.59,1111122 
TCOON,ioos:station:TCOON:171:1,2017-07-12T02:30:00Z,27.4847,-97.3181,1.0,4.94,1111122 
TCOON,ioos:station:TCOON:171:1,2017-07-12T03:30:00Z,27.4847,-97.3181,1.0,4.7,1111122 
TCOON,ioos:station:TCOON:171:1,2017-07-12T04:30:00Z,27.4847,-97.3181,1.0,4.5,1111122 
TCOON,ioos:station:TCOON:171:1,2017-07-12T05:30:00Z,27.4847,-97.3181,1.0,4.54,1111122 
TCOON,ioos:station:TCOON:171:1,2017-07-12T06:30:00Z,27.4847,-97.3181,1.0,4.4,1111122 
TCOON,ioos:station:TCOON:171:1,2017-07-12T07:30:00Z,27.4847,-97.3181,1.0,4.49,1111122 
TCOON,ioos:station:TCOON:171:1,2017-07-12T08:30:00Z,27.4847,-97.3181,1.0,4.33,1111122 
TCOON,ioos:station:TCOON:171:1,2017-07-12T09:30:00Z,27.4847,-97.3181,1.0,4.46,1111122 
TCOON,ioos:station:TCOON:171:1,2017-07-12T10:30:00Z,27.4847,-97.3181,1.0,4.13,1111122 
TCOON,ioos:station:TCOON:171:1,2017-07-12T11:30:00Z,27.4847,-97.3181,1.0,4.0,1111122 
TCOON,ioos:station:TCOON:171:1,2017-07-12T12:30:00Z,27.4847,-97.3181,1.0,3.77,1111122 
TCOON,ioos:station:TCOON:171:1,2017-07-12T13:30:00Z,27.4847,-97.3181,1.0,4.15,1111122 
TCOON,ioos:station:TCOON:171:1,2017-07-12T14:30:00Z,27.4847,-97.3181,1.0,4.95,1111122 
TCOON,ioos:station:TCOON:171:1,2017-07-12T15:30:00Z,27.4847,-97.3181,1.0,5.43,1111122 
TCOON,ioos:station:TCOON:171:1,2017-07-12T16:30:00Z,27.4847,-97.3181,1.0,6.15,1111122 
TCOON,ioos:station:TCOON:171:1,2017-07-12T17:30:00Z,27.4847,-97.3181,1.0,6.12,1111122 
TCOON,ioos:station:TCOON:171:1,2017-07-12T18:30:00Z,27.4847,-97.3181,1.0,6.12,1111122 
TCOON,ioos:station:TCOON:171:1,2017-07-12T19:30:00Z,27.4847,-97.3181,1.0,6.12,1111122 
TCOON,ioos:station:TCOON:171:1,2017-07-12T20:30:00Z,27.4847,-97.3181,1.0,6.11,1111122 
TCOON,ioos:station:TCOON:171:1,2017-07-12T21:30:00Z,27.4847,-97.3181,1.0,6.11,1111122 
TCOON,ioos:station:TCOON:171:1,2017-07-12T22:30:00Z,27.4847,-97.3181,1.0,6.12,1111122 
TCOON,ioos:station:TCOON:171:1,2017-07-13T00:30:00Z,27.4847,-97.3181,1.0,6.11,1111122 
TCOON,ioos:station:TCOON:171:1,2017-07-13T01:30:00Z,27.4847,-97.3181,1.0,6.13,1111122 
TCOON,ioos:station:TCOON:171:1,2017-07-13T02:30:00Z,27.4847,-97.3181,1.0,6.15,1111122 
TCOON,ioos:station:TCOON:171:1,2017-07-13T03:30:00Z,27.4847,-97.3181,1.0,6.16,1111122 
TCOON,ioos:station:TCOON:171:1,2017-07-13T04:30:00Z,27.4847,-97.3181,1.0,6.18,1111122 
TCOON,ioos:station:TCOON:171:1,2017-07-13T05:30:00Z,27.4847,-97.3181,1.0,6.18,1111122 
TCOON,ioos:station:TCOON:171:1,2017-07-13T06:30:00Z,27.4847,-97.3181,1.0,6.19,1111122 
TCOON,ioos:station:TCOON:171:1,2017-07-13T07:30:00Z,27.4847,-97.3181,1.0,6.2,1111122 
TCOON,ioos:station:TCOON:171:1,2017-07-13T08:30:00Z,27.4847,-97.3181,1.0,6.21,1111122 
TCOON,ioos:station:TCOON:171:1,2017-07-13T09:30:00Z,27.4847,-97.3181,1.0,6.21,1111122 
TCOON,ioos:station:TCOON:171:1,2017-07-13T10:30:00Z,27.4847,-97.3181,1.0,6.23,1111122 
TCOON,ioos:station:TCOON:171:1,2017-07-13T11:30:00Z,27.4847,-97.3181,1.0,6.25,1111122 
TCOON,ioos:station:TCOON:171:1,2017-07-13T12:30:00Z,27.4847,-97.3181,1.0,6.23,1111122 
TCOON,ioos:station:TCOON:171:1,2017-07-13T13:30:00Z,27.4847,-97.3181,1.0,6.23,1111122 
TCOON,ioos:station:TCOON:171:1,2017-07-13T14:30:00Z,27.4847,-97.3181,1.0,6.23,1111122 
TCOON,ioos:station:TCOON:171:1,2017-07-13T15:30:00Z,27.4847,-97.3181,1.0,6.19,1111122 
TCOON,ioos:station:TCOON:171:1,2017-07-13T16:30:00Z,27.4847,-97.3181,1.0,6.16,1111122 
TCOON,ioos:station:TCOON:171:1,2017-07-13T17:30:00Z,27.4847,-97.3181,1.0,6.14,1111122 
TCOON,ioos:station:TCOON:171:1,2017-07-13T18:30:00Z,27.4847,-97.3181,1.0,6.07,1111122 
TCOON,ioos:station:TCOON:171:1,2017-07-13T19:30:00Z,27.4847,-97.3181,1.0,6.05,1111122 
TCOON,ioos:station:TCOON:171:1,2017-07-13T20:30:00Z,27.4847,-97.3181,1.0,6.08,1111122 
TCOON,ioos:station:TCOON:171:1,2017-07-13T21:30:00Z,27.4847,-97.3181,1.0,6.06,1111122 
TCOON,ioos:station:TCOON:171:1,2017-07-13T22:30:00Z,27.4847,-97.3181,1.0,6.06,1111122 
TCOON,ioos:station:TCOON:171:1,2017-07-13T23:30:00Z,27.4847,-97.3181,1.0,6.05,1111122 
TCOON,ioos:station:TCOON:171:1,2017-07-14T00:30:00Z,27.4847,-97.3181,1.0,6.07,1111122 
TCOON,ioos:station:TCOON:171:1,2017-07-14T01:30:00Z,27.4847,-97.3181,1.0,6.11,1111122 
TCOON,ioos:station:TCOON:171:1,2017-07-14T02:30:00Z,27.4847,-97.3181,1.0,6.13,1111122 
TCOON,ioos:station:TCOON:171:1,2017-07-14T03:30:00Z,27.4847,-97.3181,1.0,6.14,1111122 
TCOON,ioos:station:TCOON:171:1,2017-07-14T04:30:00Z,27.4847,-97.3181,1.0,6.15,1111122 
TCOON,ioos:station:TCOON:171:1,2017-07-14T05:30:00Z,27.4847,-97.3181,1.0,6.16,1111122 
TCOON,ioos:station:TCOON:171:1,2017-07-14T06:30:00Z,27.4847,-97.3181,1.0,6.17,1111122 
TCOON,ioos:station:TCOON:171:1,2017-07-14T07:30:00Z,27.4847,-97.3181,1.0,6.17,1111122 
TCOON,ioos:station:TCOON:171:1,2017-07-14T08:30:00Z,27.4847,-97.3181,1.0,6.2,1111122 
TCOON,ioos:station:TCOON:171:1,2017-07-14T09:30:00Z,27.4847,-97.3181,1.0,6.19,1111122 
TCOON,ioos:station:TCOON:171:1,2017-07-14T10:30:00Z,27.4847,-97.3181,1.0,6.21,1111122 
TCOON,ioos:station:TCOON:171:1,2017-07-14T11:30:00Z,27.4847,-97.3181,1.0,6.21,1111122 
TCOON,ioos:station:TCOON:171:1,2017-07-14T12:30:00Z,27.4847,-97.3181,1.0,6.22,1111122 
TCOON,ioos:station:TCOON:171:1,2017-07-14T13:30:00Z,27.4847,-97.3181,1.0,6.21,1111122 
TCOON,ioos:station:TCOON:171:1,2017-07-14T14:30:00Z,27.4847,-97.3181,1.0,6.19,1111122 
TCOON,ioos:station:TCOON:171:1,2017-07-14T15:30:00Z,27.4847,-97.3181,1.0,6.15,1111122 
TCOON,ioos:station:TCOON:171:1,2017-07-14T16:30:00Z,27.4847,-97.3181,1.0,6.12,1111122 
TCOON,ioos:station:TCOON:171:1,2017-07-14T17:30:00Z,27.4847,-97.3181,1.0,6.06,1111122 
TCOON,ioos:station:TCOON:171:1,2017-07-14T18:30:00Z,27.4847,-97.3181,1.0,6.02,1111122 
TCOON,ioos:station:TCOON:171:1,2017-07-14T19:30:00Z,27.4847,-97.3181,1.0,5.95,1111122 
TCOON,ioos:station:TCOON:171:1,2017-07-14T20:30:00Z,27.4847,-97.3181,1.0,5.88,1111122 
TCOON,ioos:station:TCOON:171:1,2017-07-14T21:30:00Z,27.4847,-97.3181,1.0,5.9,1111122 
TCOON,ioos:station:TCOON:171:1,2017-07-14T22:30:00Z,27.4847,-97.3181,1.0,5.88,1111122 
TCOON,ioos:station:TCOON:171:1,2017-07-14T23:30:00Z,27.4847,-97.3181,1.0,5.88,1111122 
TCOON,ioos:station:TCOON:171:1,2017-07-15T00:30:00Z,27.4847,-97.3181,1.0,5.89,1111122 